Regional Weather Roundup
Issued by NWS

Home | Current Version | Previous Version | Graphics & Text | Print | Product List | Glossary On
Versions: 1 2 3 4 5 6 7 8 9 10 11 12 13 14 15 16 17 18 19 20 21 22 23 24 25 26 27 28 29 30 31 32 33 34 35 36 37 38 39 40 41 42 43 44 45 46 47 48 49 50
000
ASUS43 KOAX 201010
RWRNE

WEATHER ROUNDUP FOR NEBRASKA
NATIONAL WEATHER SERVICE OMAHA NE
500 AM CDT SAT SEP 20 2014

NOTES: SATELLITE DATA IS BEING USED TO AUGMENT CLOUD COVER ABOVE
       12000 FEET.
       "FAIR" INDICATES FEW OR NO CLOUDS BELOW 12,000 FEET WITH NO
       SIGNIFICANT WEATHER AND/OR OBSTRUCTIONS TO VISIBILITY.

  * THESE STATIONS DO NOT REPORT WEATHER SUCH AS RAIN...SNOW OR FOG.

NEZ001>004-019>022-054>056-201100-
NEBRASKA PANHANDLE

CITY           SKY/WX    TMP DP  RH WIND       PRES   REMARKS
SCOTTSBLUFF    CLEAR     57  48  72 W6        30.08R
ALLIANCE       CLEAR     54  49  83 N6        30.06R
CHADRON        PTCLDY    52  49  89 SW5       30.04F
KIMBALL        CLEAR     55  48  77 NW8       30.10R
SIDNEY         CLEAR     60  52  74 N12       30.06R
$$

NEZ057>060-069>072-079>082-201100-
SOUTHWEST NEBRASKA

CITY           SKY/WX    TMP DP  RH WIND       PRES   REMARKS
NORTH PLATTE   CLEAR     63  57  81 N14       29.93R
IMPERIAL       CLEAR     61  55  81 N10       29.94R
LEXINGTON      PTCLDY    66  61  83 NW5       29.90R
MCCOOK         MOCLDY    68  62  81 SW7       29.89S
OGALLALA       CLEAR     66  57  73 N8        29.97R
$$

NEZ005>010-023>029-035>040-094-201100-
NORTH CENTRAL NEBRASKA

CITY           SKY/WX    TMP DP  RH WIND       PRES   REMARKS
VALENTINE      PTCLDY    54  51  90 W6        29.97R
AINSWORTH      CLEAR     58  53  84 NW8       29.97R
BROKEN BOW     CLEAR     66  57  72 N9        29.92R
O`NEILL        CLEAR     62  58  87 NW7       29.92R
ORD            CLEAR     62  58  86 NW7       29.88R
THEDFORD       PTCLDY    65  55  68 N8        29.98R
$$

NEZ041-046>049-061>064-073>077-083>087-201100-
SOUTH CENTRAL NEBRASKA

CITY           SKY/WX    TMP DP  RH WIND       PRES   REMARKS
GRAND ISLAND   MOCLDY    69  62  78 CALM      29.89R
AURORA         MOCLDY    69  61  74 NW7       29.89R
HASTINGS       MOCLDY    70  58  65 SW10      29.87S
HEBRON         PTCLDY    69  61  75 SW8       29.88R
HOLDREGE       CLOUDY    67  60  78 SW5       29.88R
KEARNEY *      MOCLDY    70  61  73 CALM      29.88R
YORK           CLOUDY    70  63  78 N7        29.90R
$$

NEZ011>018-030>034-042>045-201100-
NORTHEAST NEBRASKA

CITY           SKY/WX    TMP DP  RH WIND       PRES   REMARKS
NORFOLK        MOCLDY    67  63  87 W6        29.86R
ALBION         MOCLDY    65  63  91 CALM      29.88R
BLAIR          TSTM      72  67  84 SE6       29.87R
COLUMBUS *     CLOUDY    66  63  88 CALM      29.85F
FREMONT        CLOUDY    71  66  84 W7        29.85R THUNDER
TEKAMAH        CLOUDY    69  67  93 SE7       29.83R
WAYNE          MOCLDY    61  60  96 CALM      29.86R
$$

NEZ050>053-065>068-078-088>093-201100-
SOUTHEAST NEBRASKA

CITY           SKY/WX    TMP DP  RH WIND       PRES   REMARKS
LINCOLN        CLOUDY    74  63  68 NW13      29.91R THUNDER
OMAHA EPPLEY   TSTM      72  68  87 S6        29.86R
BEATRICE       PTCLDY    70  65  82 W7        29.88R
FALLS CITY     PTCLDY    69  67  93 S12       29.86F
NEBRASKA CITY    N/A     71  63  76 SW10      29.87R
PLATTSMOUTH    TSTM      70  66  87 CALM      29.90R
$$

NEZ044-045-051>053-067-201100-
OMAHA AREA

CITY           SKY/WX    TMP DP  RH WIND       PRES   REMARKS
OMAHA EPPLEY   TSTM      72  68  87 S6        29.86R
BLAIR          TSTM      72  67  84 SE6       29.87R
FREMONT        CLOUDY    71  66  84 W7        29.85R THUNDER
MILLARD        TSTM      72  68  88 E7        29.86F
OFFUTT AFB     PTCLDY    70  70 100 S7        29.87R THUNDER
PLATTSMOUTH    TSTM      70  66  87 CALM      29.90R
WAHOO          HVY RAIN  70  64  79 SW22G30   29.85F
$$


USA.gov is the U.S. government's official web portal to all federal, state and local government web resources and services.